Terug naar catalogus

ONEWEB-0562

ActiefCommunicatiePO
NORAD 55799·PAYLOAD·🇬🇧 United Kingdom

Gelanceerd Mar 9, 2023 vanaf Cape Canaveral Space Force Station

Loading…

Volgende Passages (komende 24 uur)

TLE

VersSource: CelesTrak SupGP

Epoch: Sep 14, 2026, 18:36 UTC

1 55799C 23029D   26257.77518935  .00001898  00000+0  46749-2 0  2572
2 55799  87.9140 256.5758 0002688 102.7847 294.0821 13.20768299    11

Volg ONEWEB-0562 in realtime met AllMySat

Download on the App Store